Notices

What's New in latest Release from April 7th, 2021:

- Updated Glossary, including Speed of Maximum Gust, and Total Hourly Precipitation

- Updated national and regional climate services offices contacts and prices information

- Addition of station inventory lists for 1981-2010, 1971-2000, and 1961-1990 Normals.

If you haven't already, please take our survey and provide feedback about our website: https://eccc.sondage-survey.ca/f/LanguageSelection.aspx?s=442ca660-fcf1-47c0-95a9-59707d6fd709

Hourly Data Report for February 20, 2012

HALIFAX STANFIELD INT'L A
NOVA SCOTIA

44°52'48.060" N
63°30'00.050" W
145.40 m
8202250
71395
YHZ

Download Data

Hourly Data (February 2012)
Hourly Data Report for February 20, 2012
TIME
LST
Temp Definition
°C
Dew Point Definition
°C
Rel Hum Definition
%
Precip. Amount Definition
mm

Wind Dir Definition
10's deg

Wind Spd Definition
km/h
Visibility Definition
km
Stn Press Definition
kPa
Hmdx Definition


Wind Chill Definition


Weather Definition


00:00 -5.0 -10.6 65   31 19 24.1 99.25   -11 Clear
01:00 -5.3 -11.0 64   32 17 24.1 99.23   -11 Clear
02:00 -7.1 -11.6 70   30 7 24.1 99.28   -11 Clear
03:00 -6.5 -11.2 69   33 17 24.1 99.19   -13 Clear
04:00 -6.8 -11.3 70   34 9 24.1 99.20   -11 Clear
05:00 -7.4 -11.4 73   32 9 24.1 99.25   -12 Clear
06:00 -8.5 -11.7 78   31 11 24.1 99.29   -14 Clear
07:00 -7.7 -11.5 74   32 15 24.1 99.27   -14 Clear
08:00 -7.9 -11.4 76   32 9 24.1 99.34   -12 Clear
09:00 -7.9 -12.1 72   35 17 24.1 99.35   -15 Clear
10:00 -6.8 -12.5 64   33 20 24.1 99.34   -14 Clear
11:00 -5.7 -11.9 62   33 15 24.1 99.31   -11 Clear
12:00 -4.6 -10.8 62   35 15 24.1 99.32   -10 Clear
13:00 -3.9 -10.8 59   34 24 24.1 99.24   -11 Clear
14:00 -3.6 -10.2 60   34 28 24.1 99.16   -11 Clear
15:00 -3.2 -10.7 56   34 13 24.1 99.22   -8 Clear
16:00 -3.3 -11.3 54   33 22 24.1 99.25   -10 Mainly Clear
17:00 -3.8 -12.0 53   33 26 24.1 99.32   -11 Mainly Clear
18:00 -5.5 -12.2 59   35 24 24.1 99.42   -13 Clear
19:00 -7.5 -12.1 70   36 22 24.1 99.54   -15 Clear
20:00 -8.7 -12.4 75   35 11 24.1 99.59   -14 Clear
21:00 -8.9 -12.4 76   34 15 24.1 99.66   -15 Clear
22:00 -8.9 -12.5 75   32 15 24.1 99.71   -15 Clear
23:00 -9.3 -12.7 76   33 17 24.1 99.76   -16 Clear

Notes on Data Quality.

Legend

  • E = Estimated
  • M = Missing
  • NA = Not Available*
  • [empty] = Indicates an unobserved value
Date modified: